• In Russia
  • List of Countries
  • For 7 days
  • Water Temperature
  • Satellite Maps
  • Weather Map
  • Weather Widgets
  • user-avatar
    Login

    Hourly Weather Mazari Sharif

    Today, 21 May, Tuesday

    Time Temperature Precipitation Wind Pressure Humidity
    00:00 +22°C° 0.2 mm 1 mps 654 mmHg 36%
    01:00 +21°C° 0.2 mm 1 mps 654 mmHg 38%
    02:00 +21°C° 0.3 mm 1 mps 654 mmHg 38%
    03:00 +21°C° 0.3 mm 1 mps 654 mmHg 39%
    04:00 +20°C° 0.3 mm 1 mps 653 mmHg 40%
    05:00 +22°C° 0.1 mm 1 mps 654 mmHg 35%
    06:00 +24°C° 0.1 mm 1 mps 655 mmHg 31%
    07:00 +26°C° 0.1 mm 1 mps 656 mmHg 26%
    08:00 +27°C° 0 mm 1 mps 656 mmHg 24%
    09:00 +28°C° 0 mm 2 mps 656 mmHg 22%
    10:00 +29°C° 0 mm 2 mps 656 mmHg 20%
    11:00 +29°C° 0 mm 3 mps 656 mmHg 19%
    12:00 +30°C° 0 mm 3 mps 656 mmHg 18%
    13:00 +31°C° 0 mm 3 mps 656 mmHg 17%
    14:00 +30°C° 0 mm 3 mps 656 mmHg 16%
    15:00 +30°C° 0 mm 3 mps 655 mmHg 16%
    16:00 +30°C° 0 mm 3 mps 655 mmHg 16%
    17:00 +29°C° 0 mm 2 mps 655 mmHg 18%
    18:00 +27°C° 0 mm 2 mps 655 mmHg 20%
    19:00 +26°C° 0 mm 1 mps 654 mmHg 22%
    20:00 +25°C° 0 mm 1 mps 655 mmHg 23%
    21:00 +24°C° 0 mm 1 mps 655 mmHg 25%
    22:00 +24°C° 0 mm 1 mps 655 mmHg 27%
    23:00 +23°C° 0 mm 1 mps 654 mmHg 27%

    Tomorrow, 22 May, Wednesday

    Time Temperature Precipitation Wind Pressure Humidity
    00:00 +23°C° 0 mm 1 mps 654 mmHg 26%
    01:00 +22°C° 0 mm 1 mps 654 mmHg 26%
    02:00 +22°C° 0 mm 1 mps 653 mmHg 27%
    03:00 +21°C° 0 mm 1 mps 653 mmHg 28%
    04:00 +21°C° 0 mm 1 mps 653 mmHg 29%
    05:00 +21°C° 0 mm 2 mps 654 mmHg 29%
    06:00 +23°C° 0 mm 2 mps 654 mmHg 29%
    07:00 +24°C° 0 mm 3 mps 655 mmHg 29%
    08:00 +25°C° 0 mm 3 mps 655 mmHg 28%
    09:00 +26°C° 0 mm 4 mps 655 mmHg 28%
    10:00 +27°C° 0 mm 4 mps 655 mmHg 27%
    11:00 +27°C° 0 mm 4 mps 655 mmHg 26%
    12:00 +28°C° 0 mm 4 mps 655 mmHg 26%
    13:00 +28°C° 0 mm 5 mps 655 mmHg 25%
    14:00 +28°C° 0.1 mm 5 mps 654 mmHg 25%
    15:00 +28°C° 0.1 mm 5 mps 654 mmHg 26%
    16:00 +27°C° 0.1 mm 6 mps 654 mmHg 26%
    17:00 +26°C° 0.1 mm 6 mps 654 mmHg 27%
    18:00 +24°C° 0.1 mm 6 mps 654 mmHg 28%
    19:00 +23°C° 0.1 mm 7 mps 654 mmHg 29%
    20:00 +22°C° 0.1 mm 6 mps 654 mmHg 28%
    21:00 +21°C° 0.1 mm 6 mps 654 mmHg 26%
    22:00 +20°C° 0.1 mm 5 mps 654 mmHg 24%
    23:00 +19°C° 0.1 mm 4 mps 653 mmHg 27%

    Day after tomorrow, 23 May, Thursday

    Time Temperature Precipitation Wind Pressure Humidity
    00:00 +19°C° 0.1 mm 3 mps 653 mmHg 30%
    01:00 +18°C° 0.1 mm 3 mps 653 mmHg 33%
    02:00 +18°C° 0.3 mm 2 mps 652 mmHg 37%
    03:00 +18°C° 0.3 mm 2 mps 652 mmHg 40%
    04:00 +17°C° 0.3 mm 2 mps 652 mmHg 43%
    05:00 +17°C° 0.3 mm 2 mps 652 mmHg 40%
    06:00 +18°C° 0.3 mm 2 mps 653 mmHg 37%
    07:00 +18°C° 0.3 mm 2 mps 653 mmHg 35%
    08:00 +19°C° 0.2 mm 2 mps 653 mmHg 34%
    09:00 +19°C° 0.2 mm 2 mps 653 mmHg 33%
    10:00 +20°C° 0.2 mm 2 mps 654 mmHg 32%
    11:00 +21°C° 0.1 mm 3 mps 653 mmHg 32%
    12:00 +21°C° 0.1 mm 3 mps 653 mmHg 31%
    13:00 +22°C° 0.1 mm 3 mps 653 mmHg 30%
    14:00 +22°C° 0 mm 3 mps 653 mmHg 30%
    15:00 +22°C° 0 mm 3 mps 653 mmHg 29%
    16:00 +22°C° 0 mm 3 mps 652 mmHg 29%
    17:00 +21°C° 0.2 mm 3 mps 653 mmHg 30%
    18:00 +20°C° 0.2 mm 2 mps 653 mmHg 32%
    19:00 +20°C° 0.2 mm 1 mps 653 mmHg 34%
    20:00 +20°C° 0.2 mm 1 mps 653 mmHg 36%
    21:00 +19°C° 0.2 mm 1 mps 653 mmHg 38%
    22:00 +19°C° 0.2 mm 1 mps 653 mmHg 40%
    23:00 +19°C° 0 mm 1 mps 653 mmHg 42%

    24 May, Friday

    Time Temperature Precipitation Wind Pressure Humidity
    00:00 +18°C° 0 mm 1 mps 653 mmHg 44%
    01:00 +18°C° 0 mm 1 mps 652 mmHg 46%
    02:00 +16°C° 0 mm 1 mps 652 mmHg 47%
    03:00 +16°C° 0 mm 1 mps 652 mmHg 49%
    04:00 +16°C° 0 mm 1 mps 652 mmHg 50%
    05:00 +16°C° 0 mm 1 mps 653 mmHg 45%
    06:00 +18°C° 0 mm 1 mps 653 mmHg 39%
    07:00 +19°C° 0 mm 1 mps 654 mmHg 33%
    08:00 +19°C° 0 mm 2 mps 654 mmHg 30%
    09:00 +20°C° 0 mm 2 mps 655 mmHg 27%
    10:00 +21°C° 0 mm 2 mps 655 mmHg 24%
    11:00 +22°C° 0 mm 3 mps 655 mmHg 23%
    12:00 +22°C° 0 mm 3 mps 655 mmHg 21%
    13:00 +23°C° 0 mm 4 mps 655 mmHg 20%
    14:00 +23°C° 0 mm 4 mps 655 mmHg 20%
    15:00 +23°C° 0 mm 4 mps 655 mmHg 20%
    16:00 +23°C° 0 mm 4 mps 655 mmHg 20%
    17:00 +22°C° 0 mm 3 mps 655 mmHg 22%
    18:00 +21°C° 0 mm 2 mps 655 mmHg 24%
    19:00 +20°C° 0 mm 2 mps 655 mmHg 26%
    20:00 +20°C° 0 mm 2 mps 656 mmHg 27%
    21:00 +19°C° 0 mm 2 mps 656 mmHg 27%
    22:00 +19°C° 0 mm 2 mps 656 mmHg 27%
    23:00 +19°C° 0 mm 2 mps 656 mmHg 28%

    25 May, Saturday

    Time Temperature Precipitation Wind Pressure Humidity
    00:00 +19°C° 0 mm 2 mps 656 mmHg 29%
    01:00 +18°C° 0 mm 2 mps 656 mmHg 30%
    02:00 +18°C° 0.1 mm 2 mps 656 mmHg 32%
    03:00 +18°C° 0.1 mm 2 mps 656 mmHg 34%
    04:00 +17°C° 0.1 mm 2 mps 656 mmHg 36%
    05:00 +18°C° 0 mm 3 mps 657 mmHg 34%
    06:00 +18°C° 0 mm 3 mps 657 mmHg 32%
    07:00 +19°C° 0 mm 3 mps 658 mmHg 30%
    08:00 +20°C° 0 mm 2 mps 658 mmHg 28%
    09:00 +21°C° 0 mm 2 mps 658 mmHg 27%
    10:00 +21°C° 0 mm 2 mps 658 mmHg 25%
    11:00 +23°C° 0 mm 2 mps 658 mmHg 24%
    12:00 +24°C° 0 mm 3 mps 658 mmHg 23%
    13:00 +25°C° 0 mm 3 mps 657 mmHg 21%
    14:00 +25°C° 0.1 mm 3 mps 657 mmHg 22%
    15:00 +25°C° 0.1 mm 4 mps 657 mmHg 23%
    16:00 +25°C° 0.1 mm 4 mps 657 mmHg 24%
    17:00 +22°C° 0.5 mm 3 mps 657 mmHg 28%
    18:00 +21°C° 0.5 mm 2 mps 657 mmHg 31%
    19:00 +20°C° 0.5 mm 2 mps 657 mmHg 35%
    20:00 +20°C° 0.2 mm 2 mps 657 mmHg 36%
    21:00 +20°C° 0.2 mm 2 mps 657 mmHg 36%
    22:00 +19°C° 0.2 mm 2 mps 657 mmHg 37%
    23:00 +19°C° 0 mm 2 mps 657 mmHg 38%

    26 May, Sunday

    Time Temperature Precipitation Wind Pressure Humidity
    00:00 +18°C° 0 mm 2 mps 656 mmHg 40%
    01:00 +17°C° 0 mm 2 mps 656 mmHg 41%
    02:00 +17°C° 0 mm 2 mps 656 mmHg 42%
    03:00 +17°C° 0 mm 2 mps 656 mmHg 42%
    04:00 +16°C° 0 mm 2 mps 656 mmHg 43%
    05:00 +17°C° 0.1 mm 2 mps 656 mmHg 39%
    06:00 +18°C° 0.1 mm 2 mps 657 mmHg 36%
    07:00 +20°C° 0.1 mm 1 mps 657 mmHg 33%
    08:00 +20°C° 0.1 mm 2 mps 657 mmHg 31%
    09:00 +21°C° 0.1 mm 2 mps 658 mmHg 30%
    10:00 +23°C° 0.1 mm 2 mps 658 mmHg 28%
    11:00 +23°C° 0.1 mm 2 mps 657 mmHg 27%
    12:00 +24°C° 0.1 mm 2 mps 657 mmHg 26%
    13:00 +24°C° 0.1 mm 3 mps 657 mmHg 25%
    14:00 +25°C° 0.1 mm 3 mps 657 mmHg 25%
    15:00 +25°C° 0.1 mm 2 mps 657 mmHg 24%
    16:00 +25°C° 0.1 mm 2 mps 657 mmHg 24%
    17:00 +24°C° 0 mm 2 mps 657 mmHg 26%
    18:00 +23°C° 0 mm 1 mps 657 mmHg 29%
    19:00 +22°C° 0 mm 1 mps 656 mmHg 32%
    20:00 +21°C° 0 mm 1 mps 657 mmHg 32%
    21:00 +21°C° 0 mm 1 mps 657 mmHg 33%
    22:00 +20°C° 0 mm 1 mps 657 mmHg 34%
    23:00 +20°C° 0 mm 1 mps 656 mmHg 34%
    Show more